Regional Weather Roundup
Issued by NWS

Home | Current Version | Previous Version | Graphics & Text | Print | Product List | Glossary On
Versions: 1 2 3 4 5 6 7 8 9 10 11 12 13 14 15 16 17 18 19 20 21 22 23 24 25 26 27 28 29 30 31 32 33 34 35 36 37 38 39 40 41 42 43 44 45 46 47 48 49 50
000
ASUS45 KBOU 241207
RWRCO

WEATHER ROUNDUP FOR COLORADO
NATIONAL WEATHER SERVICE DENVER/BOULDER CO
600 AM MDT FRI MAR 24 2017

NOTE: "FAIR" INDICATES FEW OR NO CLOUDS BELOW 12000 FEET WITH NO
SIGNIFICANT WEATHER AND/OR OBSTRUCTIONS TO VISIBILITY.

COZ001>005-013-030-031-241300-
...NORTHWEST COLORADO...

CITY           SKY/WX    TMP DP  RH WIND       PRES   REMARKS
CRAIG          MOCLDY    37  29  72 N16       30.07R
HAYDEN         MOCLDY    34  27  75 SW8       30.05R WCI  27
MEEKER         CLOUDY    39  28  64 N9G22     30.07R
MOUNT WERNER   NOT AVBL
STEAMBOAT SPGS CLOUDY    35  27  73 NW3       30.02R
WALDEN         NOT AVBL
$$

COZ006>008-011-241300-
...WEST CENTRAL VALLEYS...

CITY           SKY/WX    TMP DP  RH WIND       PRES   REMARKS
GRAND JUNCTION CLOUDY    41  35  79 N8        30.06R
MONTROSE       CLOUDY    41  32  70 NW26G33   30.04R
EAGLE          LGT RAIN  41  29  62 N9        30.02R
RIFLE          CLOUDY    41  33  73 W14       30.05R
DELTA          CLOUDY    46  32  57 W22       30.02R
NUCLA          MOCLDY    41  32  70 NW6       30.08R
$$

COZ017>023-064>068-241300-
...SOUTHWEST COLORADO...

CITY           SKY/WX    TMP DP  RH WIND       PRES   REMARKS
DURANGO        FAIR      35  29  78 W17       29.83R WCI  25
CORTEZ         CLOUDY    40  31  70 NW13G24   29.99R
PAGOSA SPRINGS CLOUDY    32  32 100 CALM      29.83S
TELLURIDE      NOT AVBL
WOLF CREEK PAS CLOUDY    21  19  93 NW12G21   29.92R WCI   9
$$

COZ009-010-012-014-032>034-037-058>063-241300-
...CENTRAL COLORADO...

CITY           SKY/WX    TMP DP  RH WIND       PRES   REMARKS
ASPEN          LGT SNOW  34  31  88 W9        29.98R FOG     WCI  27
BUENA VISTA    FAIR      39  24  54 N20G26    29.86R
COPPER MTN     CLOUDY    25  19  80 MISG      29.97R
BERTHOUD PASS  CLOUDY    16   5  62 MISG      30.00R
COTTONWOOD PAS FAIR      36  21  55 N3        29.89R
GUNNISON       FAIR      36  29  75 SW12      29.91R
KREMMLING      MOCLDY    37  30  75 NW8       30.02R
LEADVILLE      FAIR      27  19  72 N15G26    29.93R WCI  15
MONARCH PASS   LGT SNOW  23  21  93 W14G21    30.03R VSB 1   WCI  11
SALIDA         CLOUDY    37  34  90 SW8       29.93R
SUNLIGHT       HVY SNOW N/A N/A N/A NW9       30.09R VSB<1/4
WILKERSON PASS   N/A     21  19  93 NE25      29.91R WCI   4
$$

COZ069>075-241300-
...SAN LUIS VALLEY/SANGRE DE CRISTO MOUNTAINS...

CITY           SKY/WX    TMP DP  RH WIND       PRES   REMARKS
ALAMOSA        LGT RAIN  36  33  89 NW28G43   29.76R
LA VETA PASS   NOT AVBL
SAGUACHE       LGT RAIN  36  32  87 N15       29.83R
$$

COZ035-036-038>040-241300-
...NORTHERN COLORADO FRONT RANGE...

CITY           SKY/WX    TMP DP  RH WIND       PRES   REMARKS
DENVER INTL AP LGT SNOW  35  34  96 NW30G37   29.93R FOG     WCI  22
DMNS CITY PARK   N/A     38  36  92 N25       29.97R
AURORA         LGT SNOW  32  32 100 N28G40    29.94R FOG     WCI  18
FRONT RANGE AP LGT SNOW  34  34 100 N30G38    29.92R WCI  20
ERIE MUNI ARPT CLOUDY    40  35  84 N17G25    29.98R
BOULDER MUN AP CLOUDY    41  36  81 N14G20    29.99R
CENTENNIAL     LGT SNOW  33  50 100 N29G38    29.94R VSB 1   WCI  19
BROOMFIELD     CLOUDY    37  34  87 N22G35    29.97R
FORT COLLINS   CLOUDY    40  32  73 N22G30    30.00R
LONGMONT       CLOUDY    44  35  71 N21G29    30.02R
$$

COZ041-046-047-076>085-087-088-241300-
...PIKES PEAK/PALMER DIVIDE AND SOUTHERN FOOTHILLS...

CITY           SKY/WX    TMP DP  RH WIND       PRES   REMARKS
COLO. SPRINGS  SNOW      34  33  96 N41G53    29.79R VSB 1/2 WCI  18
A. F. ACADEMY  NOT AVBL
SCHRIEVER AFB  SNOW      32  32 100 NW41G56   29.75  SQUALL  VSB 3/8
ELLICOTT       NOT AVBL
FALCON         CLOUDY    32  31  98 N33G52    29.81R WCI  16
FORT CARSON    MIX PCPN  34  32  92 N44G58    29.75R FOG     WCI  18
LIMON          LGT SNOW  32  32 100 N41G51    29.74R VSB 3/4 WCI  16
MONUMENT HILL  CLOUDY    30  30 100 N29G36    29.90R WCI  15
TRINIDAD       LGT SNOW  35  32  88 N36G53    29.63R FOG     WCI  21
$$

COZ042>045-048>051-090-091-241300-
...NORTHEAST COLORADO...

CITY           SKY/WX    TMP DP  RH WIND       PRES   REMARKS
GREELEY ARPT   CLOUDY    40  35  83 N28       29.98R
AKRON          LGT RAIN  39  37  92 N33G45    29.82R FOG
BURLINGTON     TSTM      46  46 100 NE45G56   29.63R VSB 1/2
WRAY           NOT AVBL
STERLING       LGT RAIN  41  39  93 N33G41    29.85S
HOLYOKE        LGT RAIN  43  41  93 N31G37    29.82S
FORT MORGAN    LGT RAIN  39  37  91 N31G40    29.90R
$$

COZ086-089-092>099-241300-
...SOUTHEAST COLORADO...

CITY           SKY/WX    TMP DP  RH WIND       PRES   REMARKS
PUEBLO         LGT RAIN  39  34  82 MISG      29.70R
LA JUNTA       CLOUDY    42  33  70 N38G53    29.62R
LAMAR          FAIR      40  32  73 NE9       29.52R
SPRINGFIELD      N/A     41  30  65 NE21G26   29.41R
$$



USA.gov is the U.S. government's official web portal to all federal, state and local government web resources and services.